Regional Weather Roundup
Issued by NWS

Home | Current Version | Previous Version | Graphics & Text | Print | Product List | Glossary On
Versions: 1 2 3 4 5 6 7 8 9 10 11 12 13 14 15 16 17 18 19 20 21 22 23 24 25 26 27 28 29 30 31 32 33 34 35 36 37 38 39 40 41 42 43 44 45 46 47 48 49 50
770
ASUS43 KOAX 100110
RWRNE

WEATHER ROUNDUP FOR NEBRASKA
NATIONAL WEATHER SERVICE OMAHA NE
700 PM CST TUE FEB 09 2016

NOTES: SATELLITE DATA IS BEING USED TO AUGMENT CLOUD COVER ABOVE
       12000 FEET.
       "FAIR" INDICATES FEW OR NO CLOUDS BELOW 12,000 FEET WITH NO
       SIGNIFICANT WEATHER AND/OR OBSTRUCTIONS TO VISIBILITY.

  * THESE STATIONS DO NOT REPORT WEATHER SUCH AS RAIN...SNOW OR FOG.

NEZ001>004-019>022-054>056-100200-
NEBRASKA PANHANDLE

CITY           SKY/WX    TMP DP  RH WIND       PRES   REMARKS
SCOTTSBLUFF    CLEAR     41  30  65 W10       30.20R
ALLIANCE       CLEAR     39  31  72 W14       30.14F WCI  31
CHADRON        CLOUDY    42  32  67 W9        30.14S
KIMBALL        CLEAR     38  29  70 W16       30.22F WCI  29
SIDNEY         CLEAR     38  31  76 W14       30.20S WCI  30
$$

NEZ057>060-069>072-079>082-100200-
SOUTHWEST NEBRASKA

CITY           SKY/WX    TMP DP  RH WIND       PRES   REMARKS
NORTH PLATTE   CLOUDY    35  25  66 VRB3      30.18R
IMPERIAL       CLOUDY    41  30  65 W10       30.18S
LEXINGTON      CLOUDY    32  23  70 S6        30.21R WCI  26
MCCOOK         CLOUDY    34  24  67 S3        30.20F
OGALLALA       PTCLDY    36  31  83 W5        30.16F WCI  32
$$

NEZ005>010-023>029-035>040-094-100200-
NORTH CENTRAL NEBRASKA

CITY           SKY/WX    TMP DP  RH WIND       PRES   REMARKS
VALENTINE      CLOUDY    38  27  64 N5        30.14S WCI  34
AINSWORTH      CLOUDY    33  23  65 S5        30.14F WCI  29
BROKEN BOW     CLOUDY    28  22  78 S7        30.17F WCI  21
O`NEILL        CLOUDY    29  19  65 S5        30.18F WCI  24
ORD            CLOUDY    27  18  69 CALM      30.19F
THEDFORD       CLOUDY    40  31  69 W3        30.15S
$$

NEZ041-046>049-061>064-073>077-083>087-100200-
SOUTH CENTRAL NEBRASKA

CITY           SKY/WX    TMP DP  RH WIND       PRES   REMARKS
GRAND ISLAND   CLOUDY    23  13  65 S5        30.25S WCI  17
AURORA         CLOUDY    22  15  73 SW7       30.25S WCI  14
HASTINGS       CLOUDY    25  13  60 S3        30.24S
HEBRON         CLOUDY    25  16  68 W3        30.29S
HOLDREGE       CLOUDY    28  19  69 S6        30.23R WCI  22
YORK           CLOUDY    19  16  86 W6        30.26S WCI  11
$$

NEZ011>018-030>034-042>045-100200-
NORTHEAST NEBRASKA

CITY           SKY/WX    TMP DP  RH WIND       PRES   REMARKS
NORFOLK        CLEAR     23  12  62 W7        30.21F WCI  15
ALBION         PTCLDY    23  15  70 CALM      30.22F
BLAIR          CLOUDY    22  14  72 NW3       30.24S
COLUMBUS *     CLEAR     25   9  50 W5        30.25S WCI  19
FREMONT        PTCLDY    21  12  68 CALM      30.26S
WAYNE          PTCLDY    20  14  78 CALM      30.24S
$$

NEZ050>053-065>068-078-088>093-100200-
SOUTHEAST NEBRASKA

CITY           SKY/WX    TMP DP  RH WIND       PRES   REMARKS
LINCOLN        PTCLDY    26  14  60 W3        30.28S
OMAHA EPPLEY   CLOUDY    22  14  71 NW5       30.26F WCI  16
BEATRICE       CLOUDY    24  15  68 W7        30.29R WCI  16
FALLS CITY     CLEAR     22   9  57 NW8       30.28R WCI  12
NEBRASKA CITY  CLEAR     20  10  66 NW5       30.27S WCI  13
PLATTSMOUTH    PTCLDY    19  11  73 W7        30.26S WCI   9
$$

NEZ044-045-051>053-067-100200-
OMAHA AREA

CITY           SKY/WX    TMP DP  RH WIND       PRES   REMARKS
OMAHA EPPLEY   CLOUDY    22  14  71 NW5       30.26F WCI  16
BLAIR          CLOUDY    22  14  72 NW3       30.24S
FREMONT        PTCLDY    21  12  68 CALM      30.26S
MILLARD        CLOUDY    23  13  65 CALM      30.26F
OFFUTT AFB     MOCLDY    21  13  71 NW8       30.26S WCI  12
PLATTSMOUTH    PTCLDY    19  11  73 W7        30.26S WCI   9
WAHOO          FAIR      22  14  71 W3        30.26S
$$




USA.gov is the U.S. government's official web portal to all federal, state and local government web resources and services.